Location: *
(45.9500°N, 9.0833°E)
Time: 20:33:35
(UTC+00:00)

Transit 4A - Visible Passes

Search period start: 13 June 2021 00:00
Search period end: 23 June 2021 00:00
Orbit: 871 x 973 km, 66.8° (Epoch: 13 June)

Date Brightness Start Highest point End Pass type
(mag) Time Alt. Az. Time Alt. Az. Time Alt. Az.
15 Jun 9.4 19:44:48 10° NW 19:49:46 30° WSW 19:54:46 10° S visible
16 Jun 10.0 19:54:41 10° WNW 19:58:49 20° WSW 20:02:58 10° SSW visible
17 Jun 10.3 20:05:11 10° WNW 20:07:48 13° WSW 20:10:25 10° SW visible
